Torna al catalogo

STARLINK-5162

AttivoComunicazioniVLEO
NORAD 54184·PAYLOAD·🇺🇸 United States

Lanciato Oct 28, 2022 da Vandenberg Space Force Base

Loading…

Prossimi Passaggi (prossime 24 ore)

TLE

AggiornatoSource: CelesTrak SupGP

Epoca: Sep 14, 2026, 13:02 UTC

1 54184C 22141AD  26257.54354167 -.00034349  00000+0 -11047-2 0  2575
2 54184  53.1564 224.0850 0001327  87.1473 273.5674 15.31714037    19

Traccia STARLINK-5162 in tempo reale con AllMySat

Download on the App Store